Other Surface Observations
Issued by NWS Tucson, AZ

Home | Current Version | Previous Version | Text Only | Print | Product List | Glossary On
Versions: 1 2 3 4 5 6 7 8 9 10 11 12 13 14 15 16 17 18 19 20 21 22 23 24 25 26 27 28 29 30 31 32 33 34 35 36 37 38 39 40 41 42 43 44 45 46 47 48 49 50
000
SXUS55 KTWC 210315
OSOTWC

WEATHER ROUNDUP FOR SOUTHEAST ARIZONA
NATIONAL WEATHER SERVICE TUCSON AZ
815 PM MST MON MAY 20 2019

AZZ504>506-514-210415-
LOCATION       SKY/WX    TMP DP  RH WIND       PRES   REMARKS
TUCSON         MOCLDY    64  26  23 W10       29.88R
DAVIS-MONTHAN  PTCLDY    64  27  25 W10       29.86
CHILDRENS PARK N/A      N/A N/A  21 W8                PIMA CO DEQ
ALVERNON/22ND  N/A       66 N/A N/A W8                PIMA CO DEQ
CHERRY/GLENN   N/A      N/A N/A N/A N/A               PIMA CO DEQ
TANGERINE      N/A       65 N/A N/A W10               PIMA CO DEQ
CONTL RANCH    N/A       68  25  20 W10               PIMA CO DEQ
GRANT/1ST      N/A       67  25  20 W11               PIMA CO DEQ
CRAYCROFT/22ND N/A       66  24  20 W12               PIMA CO DEQ
GOLFLINKS/KOLB N/A      N/A N/A N/A N/A               PIMA CO DEQ
AJO/12TH       N/A       66  24  20 W10               PIMA CO DEQ
FAIRGROUNDS    N/A       65 N/A N/A W16               PIMA CO DEQ
SAGUARO        N/A       64  25  23 W8G17             *SABINO CYN
SAN CARLOS     N/A       56  34  43 CALM              *SAN CARLOS
GREEN VALLEY   N/A       67  26  21 W9                PIMA CO DEQ
HORSE CAMP CYN N/A       55  28  35 W10G31            *ARAVAIPA CYN
RINCON MTNS    NOT AVBL
$$

AZZ509>511-210415-
LOCATION       SKY/WX    TMP DP  RH WIND       PRES   REMARKS
SAFFORD        PTCLDY    53  32  44 S7        29.86R
STRAY HORSE    N/A       30  25  80 W12G27            *
TRAIL CABIN    NOT AVBL
BLACK HILLS    NOT AVBL
DRY LAKE       N/A       33  26  74 W5G12             *NATANES MTNS
NOON CREEK     NOT AVBL
COLUMBINE      N/A       27  19  71 W7G20             *PINALENO MTNS
GUTHRIE        N/A       38  29  71 N13G27            *SW OF GUTHRIE
$$

AZZ502-503-513-210415-
LOCATION       SKY/WX    TMP DP  RH WIND       PRES   REMARKS
NOGALES        CLEAR     57  25  29 W7        29.91R
SELLS          N/A       66  28  24 W7G16             *
SASABE         N/A       61  28  28 SW12G18           *ALTAR VLY
HOPKINS        N/A       41  22  46 W10G23            *SANTA RITA MTNS
CARR CYN       N/A       51  21  31 S3G12             *W OF HEREFORD
$$

AZZ507-508-512-210415-
LOCATION       SKY/WX    TMP DP  RH WIND       PRES   REMARKS
SIERRA VISTA   CLEAR     52  22  30 W13       29.92
DOUGLAS        CLEAR     57  19  22 NW14      29.88R
EMPIRE MTNS    NOT AVBL
MULESHOE RANCH N/A       54  22  29 NW12G19           *PRESERVE
HEADQUARTERS   NOT AVBL
$$

.............................NOTES.............................
THIS IS AN AUTOMATED COLLECTIVE WITH MINIMAL QUALITY CONTROL.
PIMA CO DEQ SITES HAVE NONSTANDARD WIND SENSOR HEIGHTS.
PIMA CO DEQ SITES DO NOT REPORT WIND GUSTS.
* INDICATES WIND SENSORS LOCATED AT 20 FEET INSTEAD OF 33 FEET.
..............................KEY..............................
SKY/WX - SKY CONDITION/WEATHER
TMP    - TEMPERATURE IN FAHRENHEIT
DP     - DEWPOINT IN FAHRENHEIT
RH     - RELATIVE HUMIDITY IN PERCENT
WIND   - DIRECTION AND SPEED IN MILES PER HOUR (MPH)
VRB    - VARIABLE WIND DIRECTION
PRES   - MEAN SEA LEVEL PRESSURE IN INCHES OF MERCURY
         F - FALLING PRESSURE   R - RISING PRESSURE
         S - STEADY PRESSURE
VSB    - VISIBILITY IN MILES
HX     - HEAT INDEX IN FAHRENHEIT
WCI    - WIND CHILL INDEX IN FAHRENHEIT
N/A    - NOT AVAILABLE
AFB    - AIR FORCE BASE
         DAVIS-MONTHAN IS DAVIS-MONTHAN AIR FORCE BASE
CYN    - CANYON
MTNS   - MOUNTAINS
NCA    - NATIONAL CONSERVATION AREA
NR     - NEAR
VLY    - VALLEY
CONTL  - CONTINENTAL
PIMA CO DEQ - PIMA COUNTY DEPT OF ENVIRONMENTAL QUALITY



USA.gov is the U.S. government's official web portal to all federal, state and local government web resources and services.